RH
52 53 57 57 56 57 59 53 52 28 28 21 19 18 27 31 36 39 40 40 39 43 55 59 58 79 79 79 73 73 80 74 64 56 39 31 24 24 25 29 32 31 31 27
62 58 58 56 53 52 46 37 37 34 35 26 24 32 32 30 32 36 42 46 43 44 50 67 81 82 84 81 80 80 85 69 55 40 31 26 26 29 30 28 31 32 34 36
66 61 63 59 53 42 37 38 40 44 34 37 39 42 41 42 45 47 49 51 60 63 65 73 82 86 85 87 81 88 73 52 42 30 27 29 31 31 29 29 30 32 34 33
81 76 79 46 37 35 40 40 44 46 43 43 44 44 44 47 55 52 60 71 69 72 74 75 76 80 83 81 83 70 50 42 31 28 31 33 33 33 31 31 33 35 34 33
82 78 57 44 33 50 59 51 51 49 50 50 52 58 58 64 73 75 70 61 63 64 67 73 74 77 74 65 59 47 40 33 29 31 34 37 35 32 34 36 33 31 29 30
87 82 73 45 48 64 67 64 58 55 54 58 65 74 66 63 67 68 72 71 70 72 62 54 57 55 48 49 43 38 35 31 31 34 40 38 35 37 40 38 33 31 30 29
75 92 78 56 63 63 67 69 65 64 68 71 69 71 68 66 69 72 73 73 66 54 39 41 45 40 42 39 38 36 34 33 34 41 40 37 38 38 38 38 36 35 34 33
82 86 75 57 66 72 74 77 76 76 76 76 75 73 71 73 71 71 71 67 56 39 37 39 38 37 37 39 38 35 34 36 41 41 39 38 37 37 39 42 40 38 38 38
73 72 82 76 82 81 82 86 87 83 85 83 77 76 78 78 79 79 76 71 58 37 37 37 37 40 41 39 36 35 37 44 43 40 41 38 36 37 40 43 43 41 41 41
93 81 78 78 82 85 92 85 86 87 85 82 81 81 83 83 82 83 81 76 65 38 39 42 45 43 41 38 37 39 45 45 42 41 39 36 36 38 42 43 46 46 43 41
87 71 67 71 80 88 91 91 90 88 85 85 84 82 82 81 82 85 83 80 70 45 42 45 46 42 41 39 38 41 44 42 40 37 34 36 39 41 43 45 47 50 48 47
70 60 56 64 76 86 81 84 95 90 87 81 71 66 66 67 66 69 70 65 58 48 43 46 43 41 41 40 40 44 42 38 36 35 34 37 40 41 44 48 54 55 52 52
39 37 44 58 75 83 79 83 88 87 82 74 68 64 69 67 63 55 49 49 49 47 45 43 44 43 41 42 43 42 43 43 39 37 38 39 41 45 53 58 56 56 59 60
36 43 48 56 68 73 75 74 82 86 82 79 72 69 71 69 65 59 56 46 48 45 42 44 45 45 44 43 46 51 51 48 44 43 44 49 56 59 58 57 60 65 67 66
47 49 45 52 59 67 68 71 79 82 85 85 78 75 74 71 70 65 60 47 43 42 43 45 47 48 47 48 53 54 50 51 55 59 63 64 61 58 60 66 69 71 72 65
55 58 63 63 70 74 72 68 79 84 85 87 83 79 79 77 70 65 61 50 43 43 45 48 50 49 50 54 53 52 55 60 63 62 60 63 68 70 71 73 74 73 66 65
64 60 65 69 71 79 84 79 81 85 89 88 87 88 77 70 66 64 58 48 45 46 49 49 51 57 57 55 55 58 62 61 60 66 71 70 71 73 75 75 71 69 73 78
61 63 70 74 80 85 90 92 93 95 94 92 87 80 72 70 67 65 56 47 46 47 51 52 57 60 57 57 62 64 62 64 71 71 70 71 72 71 69 70 74 77 79 78
73 75 76 81 87 92 94 94 93 93 89 85 83 77 73 68 66 60 52 47 48 50 51 54 61 61 58 61 65 67 71 73 71 72 71 70 71 72 73 77 81 82 82 85
67 64 69 79 88 91 90 91 89 86 84 79 73 72 68 66 62 59 50 50 52 56 61 63 63 64 62 66 70 71 72 71 71 73 76 79 78 77 79 80 81 84 90 97
66 71 76 79 87 90 84 82 83 82 79 74 71 68 65 61 59 54 52 58 62 63 66 67 66 67 68 70 71 73 74 75 77 80 81 79 78 80 81 82 88 95 96 97
67 71 80 77 69 70 68 69 72 69 68 66 62 61 57 54 54 57 63 69 71 70 69 71 72 71 71 74 77 77 77 78 83 84 80 80 82 81 84 92 95 96 97 96
66 68 69 66 57 54 53 61 59 60 61 59 56 54 54 56 64 70 73 72 72 72 74 73 73 76 79 80 78 77 77 79 82 80 84 84 80 85 92 96 96 96 84 68
67 67 66 62 59 58 56 57 57 58 59 57 55 55 60 67 72 74 75 76 76 74 74 79 82 82 81 81 81 80 80 82 83 85 83 81 86 92 96 96 87 67 59 49
73 68 69 68 62 63 64 62 58 56 56 58 62 69 73 76 79 78 77 77 78 83 85 85 84 83 82 84 83 84 89 87 85 82 82 86 93 96 90 72 57 49 40 36
82 78 73 71 72 72 70 70 71 71 71 72 75 79 82 81 79 80 81 85 87 87 87 87 86 86 87 88 90 91 89 85 82 82 87 94 93 82 59 49 44 37 34 32
88 83 80 79 78 78 79 80 81 82 82 84 85 84 82 82 84 87 89 88 88 88 88 89 89 91 91 92 92 88 85 82 84 89 94 91 70 51 47 42 36 33 33 34